sim
Sign-in with your pilot id or email,
or register
Callsign
Passwort

Schedule Details

Flight Number: RYR6447 (1)
Departure: Thessaloniki International Airport (LGTS) at 18:05
Arrival: Brussels South Charleroi Airport (EBCI) at 21:05
Route: Ryanair Passenger Schedule. Enter filed route here before submitting Pirep.

Weather Information
Getting current METAR information for LGTS 172250Z 11004KT 9999 FEW025 21/16 Q1015 NOSIG
Getting current METAR information for EBCI 172250Z 24006KT 8000 -RADZ SCT007 15/14 Q1009 TEMPO 2000 RADZ SCT003 BKN005

Schedule Frequency

Route Map